Regional Weather Roundup
Issued by NWS

Home | Current Version | Previous Version | Text Only | Print | Product List | Glossary Off
Versions: 1 2 3 4 5 6 7 8 9 10 11 12 13 14 15 16 17 18 19 20 21 22 23 24 25 26 27 28 29 30 31 32 33 34 35 36 37 38 39 40 41 42 43 44 45 46 47 48 49 50

000
ASUS43 KLOT 051158
RWRIL

ILLINOIS REGIONAL WEATHER ROUNDUP
NATIONAL WEATHER SERVICE CHICAGO/ROMEOVILLE IL
600 AM CST THU MAR 05 2015

NOTE: "FAIR" INDICATES FEW OR NO CLOUDS BELOW 12,000 FEET WITH NO
SIGNIFICANT WEATHER AND/OR OBSTRUCTIONS TO VISIBILITY.

* THESE STATIONS ARE NOT UNDER NWS QUALITY CONTROL. THEY ALSO MAY NOT
  REPORT WEATHER SUCH AS PRECIPITATION OR FOG.

ILZ001-002-007-009-015-016-024-051300-
NORTHWEST ILLINOIS

CITY           SKY/WX    TMP DP  RH WIND       PRES   REMARKS
MOLINE         CLEAR      2  -7  66 W8        30.48R WCI -12
6HR MIN TEMP:   2; 6HR MAX TEMP:  12;

$$

ILZ003-004-008-010-011-017-018-051300-
NORTH CENTRAL ILLINOIS

CITY           SKY/WX    TMP DP  RH WIND       PRES   REMARKS
ROCKFORD       NOT AVBL
$$

ILZ005-006-012>014-019>023-051300-
NORTHEAST ILLINOIS

CITY           SKY/WX    TMP DP  RH WIND       PRES   REMARKS
CHICAGO-OHARE  MOCLDY     5  -8  55 NW10      30.40R WCI -10
6HR MIN TEMP:   4; 6HR MAX TEMP:  10;

CHICAGO-MIDWAY NOT AVBL
AURORA         CLEAR     -1  -9  68 NW3       30.41R
6HR MIN TEMP:  -4; 6HR MAX TEMP:   7;

WAUKEGAN       NOT AVBL
DUPAGE AIRPORT CLEAR      2  -7  66 NW5       30.39R WCI  -8
6HR MIN TEMP:   0; 6HR MAX TEMP:   9;

WHEELING       PTCLDY     4  -8  57 NW6       30.43R WCI  -7
6HR MIN TEMP:   4; 6HR MAX TEMP:  11;

NORTHERLY ISL    N/A     12  -2  53 W9          N/A  WCI   0
$$

LMZ740>746-051300-
SOUTHERN LAKE MICHIGAN

STATION/POSITION SKY/WX   TEMP    WIND        PRES    VSBY  WAVE
                          AIR SEA DIR/SP/G                  HT/PER
                          (F)     (DEG/KT/KT) (MB)    (MI)  (FT/S)
WAUKEGAN HARBOR             5                   N/A
HARRISON CRIB              12     310/ 13/ 17   N/A
BURNHAM HARBOR             13     290/  6/ 10   N/A
CALUMET HARBOR             11     280/  7/ 12 1027.8R
MICHIGAN CITY              16     320/ 10/ 12   N/A
$$

ILZ025>027-034>036-040-047-049-050-058-095>099-051300-
WEST-CENTRAL ILLINOIS

CITY           SKY/WX    TMP DP  RH WIND       PRES   REMARKS
$$

ILZ028>032-037-038-041>044-048-051>054-059>061-051300-
CENTRAL ILLINOIS

CITY           SKY/WX    TMP DP  RH WIND       PRES   REMARKS
PEORIA         NOT AVBL
SPRINGFIELD    MOCLDY    12   2  64 N7        30.44S WCI   1
6HR MIN TEMP:  12; 6HR MAX TEMP:  18;

TAYLORVILLE    NOT AVBL
$$

ILZ033-039-045-046-055>057-062-063-051300-
EAST-CENTRAL ILLINOIS

CITY           SKY/WX    TMP DP  RH WIND       PRES   REMARKS
MATTOON        MOCLDY     9   2  73 N10       30.38F WCI  -5
$$

ILZ079-100>102-051300-
SOUTHWEST ILLINOIS

CITY           SKY/WX    TMP DP  RH WIND       PRES   REMARKS
CAHOKIA*       CLOUDY    19   7  59 N12       30.47R WCI   7
$$

ILZ064>066-069>071-074>076-080>082-084>086-088>090-092>094-051300-
SOUTH-CENTRAL ILLINOIS

CITY           SKY/WX    TMP DP  RH WIND       PRES   REMARKS
CARBONDALE     MOCLDY    19   6  57 N12       30.43R WCI   7
6HR MIN TEMP:  19; 6HR MAX TEMP:  21;

$$

ILZ067-068-072-073-078-083-087-091-051300-
SOUTHEAST ILLINOIS

CITY           SKY/WX    TMP DP  RH WIND       PRES   REMARKS
LAWRENCEVILLE  CLOUDY    17   5  59 N16       30.38F WCI   2
$$

ABBREVIATIONS USED IN REMARKS
   TC - TEMPERATURE IN CELSIUS
  WCI - WIND CHILL INDEX
   HX - HEAT INDEX
  VSB - VISIBILITY
$$



USA.gov is the U.S. government's official web portal to all federal, state and local government web resources and services.